Regional Weather Roundup
Issued by NWS

Home | Current Version | Previous Version | Graphics & Text | Print | Product List | Glossary On
Versions: 1 2 3 4 5 6 7 8 9 10 11 12 13 14 15 16 17 18 19 20 21 22 23 24 25 26 27 28 29 30 31 32 33 34 35 36 37 38 39 40 41 42 43 44 45 46 47 48 49 50
000
ASUS43 KLOT 181110
RWRIL

ILLINOIS REGIONAL WEATHER ROUNDUP
NATIONAL WEATHER SERVICE CHICAGO/ROMEOVILLE IL
600 AM CDT FRI APR 18 2014

NOTE: "FAIR" INDICATES FEW OR NO CLOUDS BELOW 12,000 FEET WITH NO
SIGNIFICANT WEATHER AND/OR OBSTRUCTIONS TO VISIBILITY.

* THESE STATIONS ARE NOT UNDER NWS QUALITY CONTROL. THEY ALSO MAY NOT
  REPORT WEATHER SUCH AS PRECIPITATION OR FOG.

ILZ001-002-007-009-015-016-024-181200-
NORTHWEST ILLINOIS

CITY           SKY/WX    TMP DP  RH WIND       PRES   REMARKS
MOLINE         CLEAR     31  27  85 CALM      30.32R
STERLING*      CLEAR     36  30  80 NE6       30.30R WCI  31
SAVANNA*       CLEAR     34  32  92 N3        30.32R
$$

ILZ003-004-008-010-011-017-018-181200-
NORTH CENTRAL ILLINOIS

CITY           SKY/WX    TMP DP  RH WIND       PRES   REMARKS
ROCKFORD       CLEAR     34  30  85 N8        30.32R WCI  27
FREEPORT*      CLEAR     34  32  93 CALM      30.32R
ROCHELLE*      CLEAR     33  31  94 N6        30.30R WCI  27
DE KALB*       CLEAR     33  31  94 N8        30.29R WCI  25
PERU*          CLEAR     37  34  90 CALM      30.30R
$$

ILZ005-006-012>014-019>023-181200-
NORTHEAST ILLINOIS

CITY           SKY/WX    TMP DP  RH WIND       PRES   REMARKS
CHICAGO-OHARE  PTCLDY    41  33  73 N6        30.28R
CHICAGO-MIDWAY PTCLDY    44  37  76 N7        30.28R
AURORA         CLEAR     33  31  92 N6        30.28R FOG     WCI  28
LANSING*       MOCLDY    43  37  78 N6        30.29R
WAUKEGAN       CLEAR     37  32  82 N6        30.28R WCI  32
DUPAGE AIRPORT CLEAR     35  33  92 N6        30.28R FOG     WCI  30
KANKAKEE*      CLOUDY    44  40  87 SW3       30.29R
WHEELING       CLEAR     40  34  79 N6        30.29S
MORRIS*        CLEAR     39  33  80 CALM      30.28R
ROMEOVILLE*    PTCLDY    40  36  86 N6        30.28R
NORTHERLY ISL    N/A     42  37  82 MISG        N/A
$$

LMZ740>746-181200-
SOUTHERN LAKE MICHIGAN

STATION/POSITION SKY/WX   TEMP    WIND        PRES    VSBY  WAVE
                          AIR SEA DIR/SP/G                  HT/PER
                          (F)     (DEG/KT/KT) (MB)    (MI)  (FT/S)
WAUKEGAN HARBOR            40     350/  8/ 11 1026.8R
HARRISON CRIB              40     340/ 16/ 18   N/A
BURNHAM HARBOR             41     350/  8/ 14   N/A
CALUMET HARBOR             42     340/  9/ 11 1026.0R
MICHIGAN CITY              41      20/  8/ 10   N/A
$$

ILZ025>027-034>036-040-047-049-050-058-095>099-181200-
WEST-CENTRAL ILLINOIS

CITY           SKY/WX    TMP DP  RH WIND       PRES   REMARKS
QUINCY         CLEAR     38  32  79 N6        30.30R WCI  33
GALESBURG*     CLEAR     27  27 100 NW3       30.31R
MACOMB*        CLEAR     33  31  92 CALM      30.33R
JACKSONVILLE*  CLEAR     39  36  87 CALM      30.31R
PITTSFIELD*    CLEAR     38  36  90 NW3       30.31R
$$

ILZ028>032-037-038-041>044-048-051>054-059>061-181200-
CENTRAL ILLINOIS

CITY           SKY/WX    TMP DP  RH WIND       PRES   REMARKS
PONTIAC        MOCLDY    43  39  87 CALM      30.29R
BLOOMINGTON    MOCLDY    43  35  73 NW6       30.30R
DECATUR        CLEAR     44  38  79 N3        30.28S
PEORIA         CLEAR     40  34  79 N3        30.30R
LACON*         CLEAR     34  32  91 CALM      30.30R
LINCOLN*       MOCLDY    43  38  84 CALM      30.30R
SPRINGFIELD    MOCLDY    43  37  79 CALM      30.29F
TAYLORVILLE    CLEAR     41  36  81 CALM      30.29R
$$

ILZ033-039-045-046-055>057-062-063-181200-
EAST-CENTRAL ILLINOIS

CITY           SKY/WX    TMP DP  RH WIND       PRES   REMARKS
CHAMPAIGN      MOCLDY    41  37  86 N6        30.28R
RANTOUL*       MOCLDY    47  40  77 CALM      30.29R
MATTOON        PTCLDY    44  40  85 NE5       30.27R
PARIS*         CLOUDY    45  42  89 CALM      30.28S
$$

ILZ079-100>102-181200-
SOUTHWEST ILLINOIS

CITY           SKY/WX    TMP DP  RH WIND       PRES   REMARKS
ALTON          CLEAR     44  38  79 CALM      30.29S
BELLEVILLE     PTCLDY    46  42  87 N7        30.28R
CAHOKIA*       PTCLDY    45  39  79 N5        30.29R
SPARTA*        CLOUDY    48  43  81 NW3       30.28S
$$

ILZ064>066-069>071-074>076-080>082-084>086-088>090-092>094-181200-
SOUTH-CENTRAL ILLINOIS

CITY           SKY/WX    TMP DP  RH WIND       PRES   REMARKS
CARBONDALE     CLOUDY    47  43  86 NW3       30.26S
CAIRO*         CLOUDY    51  46  84 CALM      30.24F
MARION         MOCLDY    48  46  93 NW3       30.26F
MT. VERNON     CLOUDY    46  36  66 CALM      30.27S
CENTRALIA*       N/A     48  41  76 CALM      30.27R
SALEM*         MOCLDY    50  43  76 CALM      30.27R
METROPOLIS*    PTCLDY    46  43  90 CALM      30.24F
$$

ILZ067-068-072-073-078-083-087-091-181200-
SOUTHEAST ILLINOIS

CITY           SKY/WX    TMP DP  RH WIND       PRES   REMARKS
FAIRFIELD*     MOCLDY    48  45  87 CALM      30.26S
HARRISBURG*    PTCLDY    45  44  99 CALM      30.27S
ROBINSON*      CLOUDY    46  44  94 CALM      30.28R
CARMI*         PTCLDY    46  45  95 CALM      30.26S
$$

ABBREVIATIONS USED IN REMARKS
   TC - TEMPERATURE IN CELSIUS
  WCI - WIND CHILL INDEX
   HX - HEAT INDEX
  VSB - VISIBILITY
$$




USA.gov is the U.S. government's official web portal to all federal, state and local government web resources and services.